Regional Weather Roundup
Issued by NWS

Home | Current Version | Previous Version | Graphics & Text | Print | Product List | Glossary Off
Versions: 1 2 3 4 5 6 7 8 9 10 11 12 13 14 15 16 17 18 19 20 21 22 23 24 25 26 27 28 29 30 31 32 33 34 35 36 37 38 39 40 41 42 43 44 45 46 47 48 49 50

000
ASUS43 KMKX 012011
RWRWI

WISCONSIN REGIONAL WEATHER ROUNDUP
NATIONAL WEATHER SERVICE MILWAUKEE/SULLIVAN WI
300 PM CDT SAT OCT 01 2016

NOTE: "FAIR" INDICATES FEW OR NO CLOUDS BELOW 12,000 FEET WITH NO
SIGNIFICANT WEATHER AND/OR OBSTRUCTIONS TO VISIBILITY.

WIZ001-002-006>008-014>016-023>028-012100-
NORTHWEST WISCONSIN

CITY           SKY/WX    TMP DP  RH WIND       PRES   REMARKS
SUPERIOR ARPT  MOSUNNY   60  55  83 NE9       30.16F
ASHLAND        SUNNY     66  54  65 E15       30.14F
HAYWARD        SUNNY     68  54  60 N9        30.12F
SIREN          SUNNY     70  51  50 NE8       30.11F
CUMBERLAND     MOSUNNY   64  54  68 NE6       30.11F
RICE LAKE      MOSUNNY   70  51  51 N5        30.12F
CHETEK         NOT AVBL
LADYSMITH      CLOUDY    69  49  49 NE10      30.12F
EAU CLAIRE     PTSUNNY   71  50  47 NE5       30.08F
MENOMONIE      PTSUNNY   74  50  42 N7        30.08F
NEW RICHMOND   MOSUNNY   72  51  47 NE6       30.10F
OSCEOLA        SUNNY     73  54  51 E8        30.12F
$$

WIZ003>005-009-010-017-018-012100-
NORTH CENTRAL WISCONSIN

CITY           SKY/WX    TMP DP  RH WIND       PRES   REMARKS
MANITOWISH WTR NOT AVBL
ARBOR VITAE    CLOUDY    65  49  55 NE7       30.12F
WOODRUFF       CLOUDY    65  49  55 NE7       30.12F
RHINELANDER    CLOUDY    66  50  56 VRB5      30.11F
EAGLE RIVER    MOSUNNY   64  45  50 NE8       30.12S
LAND O LAKES   MOSUNNY   65  50  56 NE7       30.14F
PHILLIPS       PTSUNNY   65  50  59 N8        30.11F
TOMAHAWK       CLOUDY    64  50  59 N3        30.11F
MEDFORD        MOSUNNY   67  47  48 NE7       30.10S
MERRILL        PTSUNNY   67  47  49 NE3       30.10S
$$

WIZ029-030-035-036-043>047-012100-
CENTRAL WISCONSIN

CITY           SKY/WX    TMP DP  RH WIND       PRES   REMARKS
WAUSAU         PTSUNNY   64  49  57 E10       30.08F
MOSINEE        MOSUNNY   64  54  68 E13       30.10F
MARSHFIELD     CLOUDY    69  49  48 NE10G16   30.08F
STEVENS POINT  LGT RAIN  59  51  76 E12G22    30.09S
WAUPACA        DRIZZLE   61  58  90 NE6       30.08S
WAUTOMA        CLOUDY    63  55  75 NE12      30.06F
WISC RAPIDS    PTSUNNY   67  51  56 E10G17    30.08F
CAMP DOUGLAS   PTSUNNY   64  55  72 NE10      30.06F
$$

WIZ011>013-019>022-031-037>040-048>050-012100-
NORTHEAST WISCONSIN

CITY           SKY/WX    TMP DP  RH WIND       PRES   REMARKS
ANTIGO         CLOUDY    59  51  74 E7        30.11S
SHAWANO        LGT RAIN  60  57  89 NE9       30.09S
OCONTO         NOT AVBL
STURGEON BAY   CLOUDY    59  57  93 NE8       30.07F
GREEN BAY      CLOUDY    61  60  97 NE15      30.06F
MANITOWOC      CLOUDY    61  56  83 MISG      30.05S
APPLETON       CLOUDY    57  55  94 NE13      30.05F
CLINTONVILLE   RAIN      57  55  94 NE9       30.08F
OSHKOSH        CLOUDY    61  55  81 NE16G23   30.04F
$$

WIZ032>034-041-042-053>061-012100-
SOUTHWEST WISCONSIN

CITY           SKY/WX    TMP DP  RH WIND       PRES   REMARKS
LA CROSSE      PTSUNNY   70  55  59 E9        30.06F
SPARTA         CLOUDY    67  55  65 NE9       30.07F
VIROQUA        CLOUDY    60  56  85 NE6G16    30.07S
BOSCOBEL       CLOUDY    63  57  81 CALM      30.06S
PRAIRIE DU CHI CLOUDY    62  56  81 NE7       30.06S
PLATTEVILLE    CLOUDY    63  60  89 N7        30.04S
$$

WIZ056-057-062-063-064-067-068-012100-
SOUTH CENTRAL WISCONSIN

CITY           SKY/WX    TMP DP  RH WIND       PRES   REMARKS
REEDSBURG      NOT AVBL
BARABOO/DELLS  CLOUDY    60  56  84 NE3       30.05S
LONE ROCK      CLOUDY    63  56  78 NE8       30.05F
MINERAL POINT  CLOUDY    63  59  88 N12       30.04S
MADISON        CLOUDY    60  57  89 N14       30.03S
MIDDLETON      CLOUDY    61  61 100 NE9       30.04S
WATERTOWN      CLOUDY    59  59 100 N7        30.02S
MONROE         CLOUDY    63  55  77 N12       30.01F
JANESVILLE     CLOUDY    63  61  94 NE9       30.01S
$$

WIZ051-052-058>065-066-070>072-012100-
SOUTHEAST WISCONSIN

CITY           SKY/WX    TMP DP  RH WIND       PRES   REMARKS
MILWAUKEE      LGT RAIN  61  58  90 N8        30.00F VSB 1
WAUKESHA       CLOUDY    57  57 100 N6        30.02F FOG
MILWAUKEE/TIMM CLOUDY    61  55  82 N7        30.02F FOG
RACINE         LGT RAIN  60  58  92 N7        30.01S
BURLINGTON     CLOUDY    59  56  91 N8        30.00F
KENOSHA        LGT RAIN  61  59  93 N7        29.99F FOG
FOND DU LAC    LGT RAIN  60  58  92 NE10      30.04F FOG
SHEBOYGAN      CLOUDY    60  58  92 NE8       30.03F
WEST BEND      RAIN      70  70 100 NE7       30.02F
JUNEAU         CLOUDY    59  57  96 N9        30.04S
$$

LSZ147-162-012100-
LAKE SUPERIOR

STATION/POSITION TIME  TEMP    WIND        PRES    WAVE
                       AIR SEA DIR/SP/G            HT/PER
                 (UTC) (F)     (DEG/KT/KT) (MB)    (FT/S)
W MID LAKE BUOY  1950   57 56   50/ 10/ 10 1020.7F   1/ 3
DEVILS ISLAND    2000   55      60/  8/  9 1021.3F
SAXON HARBOR     1940   55      10/  3/  4 1020.7F
$$

LMZ867-665-643>646-012100-
LAKE MICHIGAN

STATION/POSITION TIME  TEMP    WIND        PRES    WAVE
                       AIR SEA DIR/SP/G            HT/PER
                 (UTC) (F)     (DEG/KT/KT) (MB)    (FT/S)
CHAMBERS ISLAND  1900   59      20/ 17/ 19 1018.6F
S GREEN BAY BUOY 1900   59 62   50/ 16/ 19 1018.0
N MID LAKE BUOY  1950   61 64   70/ 16/ 19 1017.8F   3/ 4
NORTHPORT PIER   1900   60      50/  9/ 13 1019.0F
SISTER BAY       1908   59     100/  5/  9   N/A
KEWAUNEE LAKESHO 1900   61      50/  7/ 12 1017.3F
SHEBOYGAN LAKESH 2000   61      40/ 14/ 15 1016.4F
PORT WASHINGTON  1940   60      40/  9/ 11 1017.3F
ATWATER BUOY     2000   60 60   20/ 12/ 14 1015.9F
MILWAUKEE LAKESH 1910   58      10/ 10/ 12   N/A
S MID LAKE BUOY  1950   63 67   70/  8/ 10 1014.8F   2/ 7
KENOSHA   LAKESH 2000   59      10/  9/ 10 1015.2F
$$

TC  - TEMPERATURE IN CELSIUS
VSB - VISIBILITY IN STATUTE MILES
WCI - WIND CHILL INDEX
HX  - HEAT INDEX





USA.gov is the U.S. government's official web portal to all federal, state and local government web resources and services.